Current weather by "City, St" or "zip code"  
 

Current Conditions: WEST BRANCH

Clear


47.3 F

Last Updated on May 26 2024, 04:35 AM EDT
Humidity: 92%
Wind Speed: 0.0 mph
Barometer 29.92 in
Dewpoint: 45.1 F
Visibility: 10.00 mi
Precip: --
Heat Index: NA
Wind Chill: NA
Current conditions at:

WEST BRANCH (KY31)

Lat: 44.24 Lon: 84.18

active severe weather and emergency alerts image image weather storm and storm spotter reports image weather observation monitoring service image
Active
Alerts
Storm Reports Obs
Monitoring

Sign-up For Email & Text Message Weather Alert Notification Services



Advertise Here

Observation History for WEST BRANCH


Time Wind
(mph)
Vis
(mi)
Weather Precip (in) Temperature (F) Relative
Humidity
Wind
Chill
(F)
Heat
Index
(F)
Pressure
Air Dwpt altimeter
(in)
sea level
(mb)
Rmks
04:35 AM EDT 0.0 10.00 Clear -- 47.3 45.1 92% NA NA 29.92 1013.2
03:35 AM EDT 0.0 10.00 Clear -- 48.0 45.9 92% NA NA 29.92 1013.2
02:35 AM EDT 0.0 3.00 Fog/Mist -- 47.8 45.5 92% NA NA 29.91 1012.9
12:35 AM EDT 0.0 10.00 Clear -- 51.1 49.1 93% NA NA 29.92 1013.2
12:15 AM EDT 0.0 10.00 Clear -- 50.4 48.2 92% NA NA 29.92 1013.2
11:35 PM EDT 0.0 10.00 Clear -- 52.3 49.6 90% NA NA 29.92 1013.2
10:35 PM EDT 3.4 10.00 Clear -- 55.2 49.1 80% NA NA 29.90 1012.5
10:15 PM EDT 0.0 10.00 Clear -- 56.3 49.3 77% NA NA 29.89 1012.2
09:35 PM EDT 0.0 10.00 Clear -- 58.5 48.6 70% NA NA 29.87 1011.5
09:15 PM EDT 0.0 10.00 Clear -- 61.3 52.0 71% NA NA 29.87 1011.5
07:35 PM EDT W 5.7 10.00 Clear -- 73.2 34.0 24% NA 71.4 29.84 1010.5
07:15 PM EDT W 9.2 10.00 Clear -- 74.7 % NA NA 29.84 1010.5
06:35 PM EDT W 8.1 10.00 Clear -- 76.1 % NA NA 29.83 1010.2
05:35 PM EDT W 10.4 10.00 Clear -- 77.2 % NA NA 29.81 1009.5
05:15 PM EDT W 11.5 10.00 NULL -- 76.6 % NA NA 29.81 1009.5
04:35 PM EDT 13.8 10.00 Clear -- 77.0 % NA NA 29.81 1009.5
04:15 PM EDT 6.9 10.00 Clear -- 76.8 % NA NA 29.80 1009.1
03:35 PM EDT W 10.4 10.00 Clear -- 76.5 47.7 36% NA 75.6 29.80 1009.1
03:15 PM EDT W 9.2 10.00 Clear -- 76.1 48.6 38% NA 75.2 29.80 1009.1
02:35 PM EDT 10.4 10.00 Clear -- 75.0 48.6 39% NA 74.1 29.79 1008.8
02:15 PM EDT W 12.7 10.00 Clear -- 75.0 % NA NA 29.79 1008.8
01:35 PM EDT W 12.7 10.00 Partly Cloudy -- 73.8 52.2 47% NA 73.0 29.77 1008.1
12:35 PM EDT W 10.4 10.00 Mostly Cloudy -- 73.6 57.9 58% NA 73.4 29.77 1008.1
11:35 AM EDT W 10.4 10.00 NULL -- 69.4 59.9 72% NA NA 29.76 1007.8

Regional Weather Observation


HOUGHTON LAKE (KHTL)

Clear
48.9 F

GRAYLING AF (KGOV)

Mostly Clear
NULL F

OSCODA/WURTSMITH (KOSC)

Clear
48.2 F

BELLAIRE (KACB)

Clear
49.3 F

CADILLAC/WEXFORD (KCAD)

Clear
48.2 F

GAYLORD (KGLR)

Clear
53.1 F

Advertise Here


Advertise Here